Memphis, TN

11:34 AM CDT on August 25, 2016 (GMT -0500)
Memphis International

Weather History for KMEM - July, 2013

Change the Weather History Date:

Tuesday, July 23, 2013

  Actual Average Record
Temperature  
Mean Temperature 80 °F 83 °F  
Max Temperature 89 °F 92 °F 104 °F (1934)
Min Temperature 70 °F 74 °F 52 °F (1947)
Degree Days  
Heating Degree Days 0 0  
Month to date heating degree days 0 0  
Since 1 June heating degree days 0 0  
Since 1 July heating degree days 0 0  
Cooling Degree Days 15 18  
Month to date cooling degree days 374 410  
Year to date cooling degree days 1109 1169  
Since 1 June cooling degree days 824 848  
Growing Degree Days 29 (Base 50)    
Moisture  
Dew Point 72 °F    
Average Humidity 79    
Maximum Humidity 97    
Minimum Humidity 61    
Precipitation  
Precipitation 0.98 in 0.16 in 3.12 in (1995)
Month to date precipitation 3.39 3.40  
Year to date precipitation 43.44 31.31  
Snow  
Snow 0.00 in 0.00 in - ()
Month to date snowfall 0.0 0.0  
Since 1 June snowfall 0.0 0.0  
Since 1 July snowfall 0.0 0.0  
Snow Depth 0.00 in    
Sea Level Pressure  
Sea Level Pressure 29.90 in    
Wind  
Wind Speed 7 mph (WSW)    
Max Wind Speed 23 mph    
Max Gust Speed 30 mph    
Visibility 8 miles    
Events Rain , Thunderstorm    
T = Trace of Precipitation, MM = Missing Value Source: NWS Daily Summary

Daily Weather History Graph

Daily Weather History Graph

Search for Another Location

Airport or City:

Trip Planner

Search our weather history database for the weather conditions in past years. The results will help you decide how hot, cold, wet, or windy it might be!

Date:

Astronomy

Jul. 23, 2013 Rise Set
Actual Time 6:02 AM CDT 8:09 PM CDT
Civil Twilight 5:34 AM CDT 8:38 PM CDT
Nautical Twilight 4:59 AM CDT 9:12 PM CDT
Astronomical Twilight 4:22 AM CDT 9:50 PM CDT
Moon 8:44 PM CDT (7/23) 7:06 AM CDT (7/23)
Length of Visible Light 15h 03m
Length of Day
14h 06m
Full, 99% of the Moon is Illuminated
Jul 23
Full
Jul 29
Last Quarter
Aug 6
New
Aug 14
First Quarter
Aug 20
Full

Hourly Weather History & Observations

Time (CDT) Temp. Heat Index Dew Point Humidity Pressure Visibility Wind Dir Wind Speed Gust Speed Precip Events Conditions
12:54 AM 80.1 °F 83.8 °F 72.0 °F 76% 29.92 in 10.0 mi SSW 5.8 mph - N/A   Scattered Clouds
1:54 AM 79.0 °F - 72.0 °F 79% 29.91 in 10.0 mi SSW 5.8 mph - N/A   Mostly Cloudy
2:54 AM 78.1 °F - 72.0 °F 81% 29.90 in 10.0 mi Calm Calm - N/A   Partly Cloudy
3:54 AM 78.1 °F - 72.0 °F 81% 29.89 in 10.0 mi SSW 4.6 mph - N/A   Partly Cloudy
4:54 AM 77.0 °F - 72.0 °F 84% 29.87 in 10.0 mi Variable 5.8 mph - N/A   Scattered Clouds
5:54 AM 78.1 °F - 72.0 °F 81% 29.87 in 10.0 mi SSW 9.2 mph - N/A   Mostly Cloudy
6:54 AM 78.1 °F - 73.0 °F 84% 29.90 in 10.0 mi West 10.4 mph - 0.00 in Rain Light Rain
7:05 AM 77.0 °F - 73.4 °F 89% 29.92 in 9.0 mi West 10.4 mph - 0.01 in Rain , Thunderstorm Light Thunderstorms and Rain
7:54 AM 75.0 °F - 70.0 °F 84% 29.94 in 7.0 mi WNW 11.5 mph 23.0 mph 0.04 in Rain , Thunderstorm Thunderstorms and Rain
8:54 AM 72.0 °F - 69.1 °F 91% 29.98 in 2.0 mi North 23.0 mph 29.9 mph 0.19 in Rain , Thunderstorm Heavy Thunderstorms and Rain
9:03 AM 71.6 °F - 69.8 °F 94% 29.99 in 1.5 mi North 18.4 mph 24.2 mph 0.12 in Rain , Thunderstorm Heavy Thunderstorms and Rain
9:18 AM 71.6 °F - 69.8 °F 94% 30.00 in 0.8 mi North 10.4 mph - 0.38 in Rain , Thunderstorm Heavy Thunderstorms and Rain
9:36 AM 69.8 °F - 68.0 °F 94% 30.00 in 1.5 mi North 10.4 mph 20.7 mph 0.62 in Rain , Thunderstorm Thunderstorms and Rain
9:48 AM 69.8 °F - 68.0 °F 94% 29.99 in 4.0 mi North 6.9 mph - 0.63 in Rain , Thunderstorm Light Thunderstorms and Rain
9:54 AM 70.0 °F - 68.0 °F 93% 29.98 in 5.0 mi North 10.4 mph - 0.64 in Rain , Thunderstorm Light Thunderstorms and Rain
10:23 AM 71.6 °F - 68.0 °F 88% 29.95 in 5.0 mi NNE 5.8 mph - 0.08 in Rain , Thunderstorm Light Thunderstorms and Rain
10:39 AM 71.6 °F - 68.0 °F 88% 29.94 in 10.0 mi Calm Calm - 0.11 in Rain Light Rain
10:54 AM 72.0 °F - 69.1 °F 91% 29.91 in 10.0 mi SSE 4.6 mph - 0.11 in Rain Light Rain
11:54 AM 73.9 °F - 70.0 °F 87% 29.91 in 10.0 mi SSW 6.9 mph - 0.00 in   Mostly Cloudy
12:54 PM 78.1 °F - 70.0 °F 76% 29.89 in 10.0 mi WSW 6.9 mph - N/A   Mostly Cloudy
1:54 PM 82.0 °F 85.9 °F 70.0 °F 67% 29.88 in 10.0 mi WSW 8.1 mph - N/A   Scattered Clouds
2:54 PM 86.0 °F 92.2 °F 72.0 °F 63% 29.86 in 10.0 mi West 6.9 mph - N/A   Scattered Clouds
3:54 PM 86.0 °F 93.8 °F 73.9 °F 67% 29.83 in 10.0 mi WSW 8.1 mph - N/A   Scattered Clouds
4:54 PM 88.0 °F 96.5 °F 73.9 °F 63% 29.84 in 10.0 mi WSW 10.4 mph - N/A   Partly Cloudy
5:54 PM 86.0 °F 95.1 °F 75.0 °F 70% 29.85 in 10.0 mi WSW 6.9 mph - N/A   Mostly Cloudy
6:54 PM 84.0 °F 91.9 °F 75.0 °F 74% 29.86 in 10.0 mi SW 5.8 mph - N/A   Mostly Cloudy
7:54 PM 82.9 °F 90.8 °F 75.9 °F 79% 29.86 in 10.0 mi SSW 4.6 mph - N/A   Mostly Cloudy
8:54 PM 82.9 °F 90.8 °F 75.9 °F 79% 29.87 in 10.0 mi WSW 3.5 mph - 0.00 in Rain Light Rain
9:54 PM 82.0 °F 89.4 °F 75.9 °F 82% 29.87 in 10.0 mi WSW 5.8 mph - 0.00 in   Scattered Clouds
10:54 PM 81.0 °F 86.7 °F 75.0 °F 82% 29.88 in 10.0 mi SW 4.6 mph - N/A   Scattered Clouds
11:54 PM 81.0 °F 86.2 °F 73.9 °F 79% 29.87 in 10.0 mi Calm Calm - N/A   Scattered Clouds